Home > Weather > Langkawi > Past weeks

Flag for Malaysia Weather for the Past 2 Weeks in Langkawi, Malaysia

Now
82 °F

Partly cloudy.


Feels Like: 89 °F
Forecast: 80 / 93 °F
Wind: 5 mph from Northeast

Location: Langkawi

Current Time: Feb 13, 2016 at 4:53:49 AM

Latest Report: Feb 13, 2016 at 4:00 AM


Visibility: N/A

Pressure: 29.83 "Hg

Humidity: 79%

Dew point: 75 °F

Location of LangkawiLocation

Historic Weather in Langkawi — Graph

°F

Langkawi Temperature Yesterday

Maximum temperature yesterday: 95 °F (at 2:00 PM)
Minimum temperature yesterday: 79 °F (at 8:00 AM)
Average temperature yesterday: 85 °F

High & Low Weather Summary for the Past Weeks

 TemperatureHumidityPressure
High95 °F (Jan 31, 3:00 PM)89% (Jan 30, 7:00 AM)29.92 "Hg (Jan 30, 7:00 AM)
Low77 °F (Jan 30, 7:00 AM)47% (Feb 9, 5:00 PM)29.71 "Hg (Feb 5, 5:00 PM)
Average85 °F69%29.83 "Hg
* Reported Jan 29 4:00 AM — Feb 13 4:00 AM, Langkawi, Weather by CustomWeather, © 2016

Note: Actual official high and low records may vary slightly from our data, if they occured in-between our weather recording intervals... More about our weather records

Advertising

Langkawi Weather History for the Previous 24 Hours

 ConditionsComfort  
Time TempWeatherWind HumidityBarometerVisibility
4:00 AM
Sat, Feb 13
82 °FPartly cloudy.5 mph79%29.83 "HgN/A
3:00 AM82 °FPartly cloudy.5 mph79%29.83 "HgN/A
2:00 AM82 °FPartly cloudy.5 mph79%29.83 "HgN/A
1:00 AM82 °FPartly cloudy.1 mph79%29.86 "HgN/A
12:00 AM82 °FPartly cloudy.1 mph79%29.86 "HgN/A
11:00 PM
Fri, Feb 12
82 °FPartly cloudy.3 mph84%29.86 "HgN/A
10:00 PM84 °FPartly cloudy.3 mph74%29.86 "HgN/A
9:00 PM84 °FPartly cloudy.6 mph79%29.80 "HgN/A
8:00 PM86 °FPartly cloudy.1 mph79%29.80 "HgN/A
7:00 PM88 °FBroken clouds.2 mph79%29.77 "HgN/A
6:00 PM88 °FBroken clouds.3 mph75%29.74 "HgN/A
5:00 PM86 °FBroken clouds.5 mph79%29.74 "HgN/A
4:00 PM86 °FSprinkles. Broken clouds.6 mph84%29.77 "HgN/A
3:00 PM90 °FPartly sunny.8 mph71%29.77 "HgN/A
2:00 PM95 °FPartly sunny.3 mph60%29.80 "HgN/A
1:00 PM93 °FPartly sunny.9 mph59%29.80 "HgN/A
12:00 PM90 °FPartly sunny.10 mph63%29.83 "HgN/A
11:00 AM88 °FBroken clouds.7 mph70%29.86 "HgN/A
10:00 AM84 °FBroken clouds.3 mph79%29.86 "HgN/A
9:00 AM81 °FBroken clouds.2 mph84%29.86 "HgN/A
8:00 AM79 °FLight rain. Broken clouds.2 mph89%29.83 "Hg6 mi
7:00 AM82 °FPartly cloudy.No wind79%29.83 "HgN/A
6:00 AM82 °FPartly cloudy.2 mph74%29.80 "HgN/A
5:00 AM82 °FPartly cloudy.3 mph74%29.80 "HgN/A
4:00 AM82 °FPartly cloudy.5 mph74%29.80 "HgN/A
Weather by CustomWeather, © 2016

See weather overviewHow to use our weather pages